CAPE
nan nan nan nan nan nan nan nan nan nan nan nan nan nan nan nan nan nan nan nan nan nan nan nan nan nan nan 53 115 115 157 178 185 185 180 174 176 176 181 178 178 174 174 178 178 191 206 216 216 226 206 188 159 159 139 136 136 146 160 187 187 217 244 284 284 332 371 388 391 391 369 368 353 353 313 300 293 293 313 321 321 327 312 294 294 300
nan nan nan nan nan nan nan nan nan nan nan nan nan nan nan nan nan nan nan nan nan nan nan nan nan nan nan 21 124 124 154 170 176 176 186 195 195 195 189 185 185 187 181 186 186 196 211 222 222 225 199 176 157 157 142 134 134 138 156 184 184 209 247 299 299 339 368 396 376 376 353 327 302 302 288 286 289 289 299 304 304 314 291 295 295 303
nan nan nan nan nan nan nan nan nan nan nan nan nan nan nan nan nan nan nan nan nan nan nan nan nan nan nan 23 138 138 159 171 189 189 199 203 200 200 196 192 192 189 189 188 188 197 213 227 227 223 198 176 156 156 145 140 140 144 158 189 189 212 256 302 302 326 343 348 340 340 310 304 276 276 268 274 297 297 317 324 324 324 305 296 296 301
nan nan nan nan nan nan nan nan nan nan nan nan nan nan nan nan nan nan nan nan nan nan 0 nan nan 2 nan 1 99 99 165 194 203 203 202 202 199 199 190 194 194 186 186 191 191 201 217 225 225 206 191 174 166 166 158 147 147 146 174 214 214 250 262 272 272 283 293 307 290 290 274 270 266 266 267 278 307 307 332 333 333 326 310 310 310 313
nan nan nan nan nan nan nan nan nan nan nan nan nan nan nan nan nan nan nan 10 10 11 13 3 3 1 0 2 55 55 166 194 196 196 194 191 185 185 182 184 184 177 176 188 188 205 222 221 221 199 185 179 175 175 165 150 150 159 191 251 251 277 292 293 293 282 295 295 273 273 216 191 199 199 232 261 304 304 332 320 320 301 296 314 314 326
nan 3 1 nan nan nan nan nan nan nan nan nan nan nan nan nan 13 13 32 31 31 11 4 nan nan nan nan nan 41 41 137 166 171 171 174 167 170 170 166 168 168 165 180 192 192 217 220 205 205 191 190 183 178 178 166 151 151 174 209 258 258 300 327 326 326 314 267 217 182 182 175 171 200 200 243 281 302 302 322 325 325 305 303 326 326 350
8 11 nan nan nan nan nan 1 nan nan nan nan nan nan nan 14 42 42 28 5 5 nan nan nan nan nan nan nan 33 33 86 106 117 117 126 133 144 144 146 155 155 162 186 209 209 220 212 205 205 189 185 183 176 176 164 157 157 176 220 279 279 327 341 303 303 251 222 172 162 162 161 191 226 226 273 292 303 303 309 336 336 334 307 329 329 350
1 nan nan nan nan 7 4 nan nan nan nan nan 25 25 40 0 nan nan nan nan nan nan nan nan nan nan nan nan nan nan nan nan nan nan 0 25 86 86 134 179 179 210 220 216 216 197 180 176 176 164 158 157 146 146 144 165 165 215 262 280 280 267 231 203 203 200 189 199 200 200 237 265 276 276 265 266 291 291 330 360 360 340 323 337 337 351
nan nan 4 13 13 3 nan nan nan nan nan 30 28 28 0 nan nan nan nan nan nan nan nan nan nan nan nan nan nan nan nan nan nan nan 2 2 15 15 107 182 182 199 194 179 179 164 150 145 145 140 141 127 130 130 137 164 164 218 233 205 205 183 186 193 193 206 213 227 222 222 267 287 280 280 268 282 283 283 287 290 290 304 311 344 344 384
nan 3 15 13 13 nan nan nan nan nan 9 6 nan nan nan nan nan nan nan nan nan nan nan nan nan nan nan nan nan nan nan 4 95 95 169 141 206 206 154 115 115 90 132 134 134 124 114 111 111 104 102 99 112 112 125 150 150 167 181 161 161 156 163 188 188 220 232 241 237 237 271 299 283 283 274 270 252 252 247 238 238 246 277 338 338 386
5 16 19 10 10 nan nan 4 26 26 nan nan nan nan nan nan nan nan nan nan nan nan nan nan nan nan nan nan nan nan nan 0 31 31 107 131 136 136 126 90 90 85 95 89 89 78 74 68 68 65 59 61 76 76 99 121 121 132 133 126 126 130 157 203 203 233 240 242 245 245 264 298 290 290 281 241 216 216 183 166 166 165 202 265 265 326
16 14 20 16 16 5 7 5 nan nan nan nan nan nan nan nan nan nan nan nan nan nan nan nan nan nan nan nan nan nan 7 45 30 30 nan nan 0 0 2 1 1 12 23 35 35 39 44 45 45 39 26 19 48 48 66 71 71 99 100 108 108 130 176 232 232 252 240 243 260 260 269 279 264 264 283 200 156 156 125 95 95 94 114 152 152 216
0 11 21 16 16 11 1 nan nan nan nan nan nan nan nan nan nan nan nan nan nan nan nan nan nan nan nan nan 24 24 73 30 nan nan nan nan nan nan nan nan nan nan nan nan nan nan 5 21 21 20 15 13 28 28 56 56 56 77 85 110 110 153 220 257 257 255 218 214 238 238 260 245 209 209 191 152 107 107 96 92 92 94 98 99 99 128
8 25 19 8 8 nan nan nan nan nan nan nan nan nan nan nan nan nan nan nan nan nan nan nan nan nan 1 65 74 74 10 nan nan nan nan nan nan nan nan nan nan nan nan nan nan nan nan nan nan nan 4 5 8 8 13 39 39 65 92 151 151 206 248 243 243 219 192 178 188 188 183 175 150 150 122 105 90 90 98 122 122 132 118 102 102 85
27 13 nan nan nan nan nan nan nan nan nan nan nan nan nan nan nan nan nan nan nan nan nan nan nan 9 37 48 2 2 nan nan nan nan nan nan nan nan nan nan nan nan nan nan nan nan nan nan nan nan nan nan nan nan 4 23 23 101 146 232 232 267 241 207 207 179 166 169 159 159 149 127 111 111 95 91 109 109 172 200 200 193 174 136 136 105
11 nan nan nan nan nan nan nan nan nan nan nan nan nan nan nan nan nan nan nan nan 1 0 7 7 28 17 nan nan nan nan nan nan nan nan nan nan nan nan nan nan nan nan nan nan nan nan nan nan nan nan nan 14 14 53 51 51 163 210 267 267 250 207 181 181 169 160 155 146 146 124 110 104 104 91 110 157 157 222 232 232 194 178 152 152 131
nan nan nan nan nan nan nan nan nan nan nan nan nan nan nan nan nan nan nan nan nan nan 1 9 9 10 3 nan nan nan nan nan nan nan nan nan nan nan nan nan nan nan nan nan nan nan nan nan nan nan nan 2 55 55 109 177 177 231 215 205 205 196 168 157 157 151 149 147 120 120 100 88 99 99 107 131 203 203 222 163 163 103 96 126 126 139
nan nan nan nan nan nan nan nan nan nan nan nan nan nan nan nan nan nan nan nan nan nan 3 12 12 9 6 2 nan nan nan 0 0 0 1 nan nan nan nan nan nan nan nan nan nan nan nan nan nan nan nan 78 126 126 159 206 206 188 178 151 151 147 136 132 132 145 148 136 106 106 95 85 102 102 134 171 217 217 158 64 64 40 43 58 58 101
nan nan nan nan nan nan nan nan nan nan 0 nan nan nan nan nan nan nan nan nan nan 4 9 10 10 5 7 4 2 2 1 4 2 2 2 1 nan nan nan nan nan nan nan nan nan nan nan nan nan 1 62 144 141 141 145 139 139 130 125 124 124 119 117 128 128 149 146 118 104 104 90 91 113 113 159 169 115 115 64 40 40 31 31 46 46 78
nan nan nan nan nan nan nan nan 0 0 nan 0 0 0 nan nan nan nan 5 15 15 18 8 3 3 6 7 5 4 4 3 3 5 5 3 2 1 1 nan 2 2 0 0 nan nan nan nan 15 15 48 86 117 118 118 107 108 108 112 109 109 109 105 116 130 130 155 139 115 102 102 97 109 141 141 144 104 58 58 45 36 36 32 34 41 41 62
nan nan nan nan nan nan nan nan nan nan 8 11 3 3 3 10 24 24 35 25 25 10 7 7 7 7 4 5 4 4 0 2 5 5 6 5 1 1 1 7 7 9 7 6 6 34 74 28 28 nan 15 70 79 79 84 87 87 91 92 92 92 99 120 154 154 158 131 106 106 106 114 126 124 124 102 67 50 50 42 36 36 35 37 38 38 45
nan nan nan nan nan nan 4 1 17 17 41 14 17 17 35 47 36 36 25 15 15 10 14 13 13 7 6 4 1 1 nan 1 5 5 8 9 4 4 4 13 13 16 15 32 32 75 28 0 0 nan 0 57 67 67 72 78 78 82 84 86 86 104 138 175 175 155 126 119 123 123 134 135 114 114 83 61 51 51 46 41 41 37 39 39 39 41
nan nan nan nan nan 4 16 15 28 28 65 52 56 56 40 28 11 11 10 14 14 18 19 9 9 4 2 0 nan nan nan 0 5 5 5 6 8 8 4 6 6 10 26 46 46 22 nan nan nan nan 1 56 59 59 68 75 75 79 85 92 92 128 168 170 170 153 129 130 141 141 146 137 105 105 81 68 59 59 52 45 45 40 39 44 44 48
nan nan 3 17 17 20 30 35 28 28 9 3 0 0 1 4 11 11 19 27 27 19 12 3 3 1 1 2 1 1 0 1 4 4 6 17 18 18 10 20 20 49 54 10 10 nan nan nan nan nan nan 40 57 57 70 71 71 81 84 115 115 152 178 163 163 144 143 146 154 154 151 127 99 99 85 79 70 70 59 51 51 43 40 45 45 50
0 15 35 40 40 52 23 0 1 1 nan nan 3 3 10 33 48 48 39 27 27 12 4 2 2 2 3 16 2 2 0 nan 5 5 14 26 25 25 25 42 42 47 13 nan nan nan nan nan nan nan nan 13 57 57 68 78 78 88 105 147 147 165 160 155 155 140 142 146 148 148 141 119 109 109 99 87 75 75 62 53 53 45 44 47 47 51
77 86 72 62 62 91 82 82 85 85 58 21 15 15 22 39 37 37 19 8 8 5 4 4 4 5 4 3 3 3 2 3 17 17 25 26 27 27 21 22 22 3 1 nan nan nan nan nan nan nan nan nan 50 50 71 86 86 104 130 157 157 157 150 140 140 135 137 130 138 138 137 128 120 120 106 94 79 79 68 59 59 52 51 51 51 48
156 128 103 84 84 75 81 94 117 117 139 109 46 46 32 28 21 21 9 3 3 3 7 4 4 3 4 4 5 5 10 17 13 13 23 28 32 32 19 8 8 1 2 nan nan 0 3 3 3 nan nan nan 5 5 72 94 94 117 144 143 143 144 129 121 121 116 122 128 138 138 145 134 125 125 106 94 79 79 70 62 62 57 55 47 47 47
94 62 46 48 48 54 68 87 103 103 115 124 148 148 88 32 17 17 8 7 7 10 6 4 4 4 5 6 8 8 7 7 2 2 4 10 10 10 6 1 1 nan nan nan nan 3 27 9 9 nan nan nan nan nan 49 98 98 113 122 119 119 116 105 98 98 100 114 132 144 144 145 138 120 120 100 84 74 74 69 64 64 61 56 40 40 19
30 21 29 33 33 45 55 66 72 72 86 102 135 135 96 30 12 12 8 5 5 7 5 7 7 6 6 7 6 6 2 3 1 1 0 0 0 0 0 nan nan nan nan nan nan 2 7 2 2 nan nan 1 3 3 33 92 92 95 96 92 92 88 79 79 79 92 113 134 143 143 138 126 104 104 88 74 66 66 65 61 61 57 46 37 37 24
nan 1 6 13 13 25 25 7 26 26 63 89 119 119 109 29 7 7 4 2 2 4 4 9 9 12 8 6 3 3 1 nan nan nan nan nan nan nan nan nan nan nan nan nan nan 1 nan nan nan nan nan 10 2 2 nan 10 10 8 26 55 55 50 59 71 71 99 122 133 124 124 111 95 78 78 67 64 60 60 61 61 61 48 33 30 30 24
nan nan nan nan nan nan nan nan 2 2 51 93 111 111 92 17 1 1 2 3 3 3 5 5 5 6 9 2 1 1 nan nan nan nan nan nan nan nan nan nan nan nan nan nan nan 0 nan nan nan nan nan 0 nan nan nan nan nan nan nan nan nan 6 47 76 76 96 112 110 90 90 77 66 60 60 54 53 57 57 57 57 57 47 31 29 29 28
nan nan nan nan nan nan nan nan nan nan nan 2 4 4 22 15 8 8 1 1 1 1 0 1 1 1 1 0 nan nan nan nan nan nan 1 nan nan nan nan nan nan nan nan nan nan nan nan nan nan nan nan nan nan nan nan nan nan nan nan nan nan 0 41 43 43 37 19 30 32 32 30 30 29 29 31 33 38 38 44 47 47 44 38 32 32 33
nan nan nan nan nan nan nan nan nan nan 1 1 0 0 nan nan 13 13 2 nan nan nan nan nan nan nan nan nan nan nan nan nan 2 2 13 nan nan nan nan nan nan nan nan nan nan nan nan nan nan nan nan nan nan nan nan nan nan nan nan 0 0 nan nan 1 1 nan 1 7 10 10 21 20 22 22 25 29 32 32 38 45 45 52 49 30 30 31
nan nan nan nan nan nan nan nan nan nan 0 nan 1 1 nan nan nan nan 1 nan nan nan nan nan nan nan nan nan nan nan nan nan 4 4 12 nan nan nan nan nan nan nan nan nan nan nan nan nan nan nan nan nan nan nan nan nan nan 1 nan nan nan nan nan nan nan nan nan nan nan nan 1 1 13 13 18 25 31 31 37 42 42 49 46 34 34 26
nan nan nan nan nan nan nan nan nan nan 0 nan nan nan nan nan nan nan nan nan nan nan nan nan nan nan nan nan nan nan nan nan 1 1 11 0 nan nan nan nan nan nan nan nan nan nan nan nan nan 2 5 2 nan nan nan nan nan nan nan nan nan nan nan nan nan nan nan nan nan nan nan nan 1 1 10 26 33 33 37 35 35 35 36 34 34 27
nan nan nan nan nan nan nan nan nan nan nan nan nan nan nan nan nan nan nan nan nan nan 1 nan nan nan nan nan nan nan nan nan 1 1 10 nan nan nan nan nan nan nan nan nan nan nan nan nan nan 18 20 5 2 2 nan nan nan nan nan nan nan nan nan nan nan nan nan nan nan nan nan nan 3 3 13 32 33 33 32 28 28 25 23 23 23 22
nan nan nan nan nan nan nan nan nan nan nan nan nan nan nan nan nan nan nan nan nan nan nan 1 1 0 6 nan nan nan nan nan nan nan 1 nan nan nan nan nan nan nan nan nan nan nan 0 10 10 12 5 3 1 1 nan nan nan nan nan nan nan nan nan nan nan nan nan nan nan nan 0 3 9 9 18 29 23 23 24 22 22 17 17 15 15 15
nan nan nan nan nan nan nan nan nan nan nan nan nan nan nan nan nan nan nan nan nan nan nan nan nan nan 3 14 1 1 nan nan nan nan nan nan nan nan nan nan nan nan nan nan nan 1 10 7 7 5 2 nan 2 2 0 nan nan nan nan nan nan nan nan nan nan nan nan nan 2 2 5 6 6 6 7 6 3 3 3 2 2 8 13 9 9 10
nan nan nan nan nan nan nan nan nan nan nan nan nan nan nan nan nan nan nan nan nan nan nan nan nan nan nan nan 1 1 3 nan nan nan nan nan nan nan nan nan nan nan nan 0 0 6 3 1 1 0 nan nan nan nan nan nan nan nan nan nan nan nan nan nan nan nan nan nan 2 2 4 1 0 0 0 nan nan nan nan 0 0 3 3 1 1 4
0 nan nan 1 1 nan nan nan nan nan nan nan nan nan nan nan nan nan nan nan nan nan nan nan nan nan nan nan nan nan nan nan nan nan nan nan nan nan nan nan nan nan 0 0 0 nan nan nan nan nan nan nan nan nan nan nan nan nan 2 nan nan nan nan nan nan nan nan nan 1 1 1 nan 0 0 0 nan nan nan nan nan nan 1 2 0 0 nan
3 nan nan nan nan nan nan nan nan nan nan nan nan nan nan nan nan nan nan nan nan nan nan nan nan nan nan nan nan nan nan nan nan nan nan nan nan nan nan nan nan nan 0 nan nan nan nan nan nan nan nan nan 1 1 1 nan nan 3 8 nan nan nan nan nan nan nan nan nan 1 1 3 2 2 2 nan 0 nan nan nan nan nan 0 1 nan nan nan
8 2 nan nan nan nan nan nan nan nan nan nan nan nan nan nan nan nan nan nan nan nan nan nan nan nan nan nan nan nan nan nan nan nan nan nan nan nan nan 1 1 3 0 nan nan nan nan nan nan nan nan 0 0 0 nan nan nan 0 2 nan nan nan nan nan nan nan nan nan nan nan 3 1 nan nan 0 nan nan nan nan nan nan 2 1 nan nan nan
0 nan nan nan nan nan nan nan nan nan nan nan nan nan nan nan nan nan nan nan nan nan nan nan nan nan nan nan nan nan nan nan nan nan nan nan nan nan 4 5 5 nan nan nan nan nan nan 1 1 nan nan nan nan nan nan nan nan nan nan 0 0 nan nan nan nan nan nan nan nan nan nan nan nan nan nan nan nan nan nan 0 0 3 2 nan nan nan
nan nan nan nan nan nan nan nan nan nan nan nan nan nan nan nan nan nan nan nan nan nan nan nan nan nan nan nan nan nan nan nan nan nan nan 8 19 19 19 1 1 nan nan nan nan nan nan nan nan nan nan nan nan nan nan nan nan nan nan nan nan nan nan nan nan nan nan nan nan nan nan nan nan nan nan nan nan nan nan nan nan nan nan nan nan nan
nan nan nan nan nan nan nan nan nan nan nan nan nan nan nan nan nan nan nan nan nan nan nan nan nan nan nan nan nan nan nan nan nan nan nan 13 41 41 7 nan nan nan nan nan nan nan nan nan nan nan nan nan nan nan nan nan nan nan nan nan nan nan nan nan nan nan nan nan nan nan nan nan nan nan nan nan nan nan nan nan nan nan nan nan nan nan
nan nan nan nan nan nan nan nan nan nan nan nan nan nan nan nan nan nan nan nan nan nan nan nan nan nan nan nan nan nan nan nan nan nan nan nan nan nan nan nan nan nan nan nan nan nan nan nan nan nan nan nan nan nan nan nan nan nan nan nan nan nan nan nan nan nan nan nan nan nan nan nan nan nan nan nan nan nan nan nan nan nan nan nan nan nan
nan nan nan nan nan nan nan nan nan nan nan nan nan nan nan nan nan nan nan nan nan nan nan nan nan nan nan nan nan nan 0 0 nan nan nan nan nan nan nan nan nan nan nan nan nan nan nan nan nan nan nan nan nan nan nan nan nan nan nan nan nan nan nan nan nan nan nan nan nan nan nan nan nan nan nan nan nan nan nan nan nan nan nan nan nan nan
nan nan nan nan nan nan nan nan nan nan nan nan nan nan nan nan nan nan nan nan nan nan nan nan nan nan nan nan 0 0 1 1 0 0 nan nan nan nan nan nan nan nan nan nan nan nan nan nan nan nan nan nan nan nan nan nan nan nan nan nan nan nan nan nan nan nan nan nan nan nan nan nan nan nan nan nan nan nan nan nan nan nan nan nan nan nan
nan nan nan nan nan nan nan nan nan nan nan nan nan nan nan nan 19 19 nan nan nan nan nan nan nan nan nan nan 2 2 4 2 0 0 nan nan 0 0 nan nan nan nan nan nan nan nan nan nan nan nan nan nan nan nan nan nan nan nan nan nan nan nan nan nan nan nan nan nan nan nan nan nan nan nan nan nan nan nan nan nan nan nan nan nan nan nan
nan nan nan nan nan nan nan nan nan nan nan nan nan nan nan nan nan nan nan nan nan nan nan nan nan nan nan nan 2 2 3 0 nan nan nan nan nan nan nan nan nan nan nan nan nan nan nan nan nan nan 5 0 nan nan nan nan nan nan nan nan nan nan nan nan nan nan nan nan nan nan nan nan nan nan nan nan nan nan nan nan nan nan nan nan nan nan
nan nan nan nan nan nan nan nan nan nan nan nan nan nan nan nan nan nan nan nan nan nan nan nan nan nan nan 1 4 4 4 0 nan nan nan 0 nan nan nan nan nan nan nan nan nan nan nan nan nan nan nan 6 3 3 nan nan nan nan nan nan nan nan nan nan nan nan nan nan nan nan nan nan nan nan nan nan nan nan nan nan nan nan nan nan nan nan
CIN
nan nan nan nan nan nan nan nan nan nan nan nan nan nan nan nan nan nan nan nan nan nan nan nan nan nan nan 0 0 0 0 0 0 0 0 0 0 0 0 0 0 0 0 0 0 0 0 0 0 0 0 0 0 0 0 0 0 0 0 0 0 0 0 0 0 0 0 0 0 0 0 0 0 0 0 0 0 0 0 0 0 0 0 0 0 0
nan nan nan nan nan nan nan nan nan nan nan nan nan nan nan nan nan nan nan nan nan nan nan nan nan nan nan -5 0 0 0 0 0 0 0 0 0 0 0 0 0 0 0 0 0 0 0 0 0 0 0 0 0 0 0 0 0 0 0 0 0 0 0 0 0 0 0 0 0 0 0 0 0 0 0 0 0 0 0 0 0 0 0 0 0 0
nan nan nan nan nan nan nan nan nan nan nan nan nan nan nan nan nan nan nan nan nan nan nan nan nan nan nan -8 0 0 0 0 0 0 0 0 0 0 0 0 0 0 0 0 0 0 0 0 0 0 0 0 0 0 0 0 0 0 0 0 0 0 0 0 0 0 0 0 0 0 0 0 0 0 0 0 0 0 0 0 0 0 0 0 0 0
nan nan nan nan nan nan nan nan nan nan nan nan nan nan nan nan nan nan nan nan nan nan -18 nan nan -17 nan -21 0 0 0 0 0 0 0 0 0 0 0 0 0 0 0 0 0 0 0 0 0 0 0 0 0 0 0 0 0 0 0 0 0 0 0 0 0 0 0 0 0 0 0 0 0 0 0 0 0 0 0 0 0 0 0 0 0 0
nan nan nan nan nan nan nan nan nan nan nan nan nan nan nan nan nan nan nan -10 -10 -10 -14 -26 -26 -30 -28 -35 -3 -3 0 0 0 0 0 0 0 0 0 0 0 0 0 0 0 0 0 0 0 0 0 0 0 0 0 0 0 0 0 0 0 0 0 0 0 0 0 0 0 0 0 0 0 0 0 0 0 0 0 0 0 0 0 0 0 0
nan -16 -17 nan nan nan nan nan nan nan nan nan nan nan nan nan -22 -22 -10 -7 -7 -13 -19 nan nan nan nan nan -1 -1 0 0 0 0 0 0 0 0 0 0 0 0 0 0 0 0 0 0 0 0 0 0 0 0 0 0 0 0 0 0 0 0 0 0 0 0 0 0 0 0 0 0 0 0 0 0 0 0 0 0 0 0 0 0 0 0
-10 -16 nan nan nan nan nan -31 nan nan nan nan nan nan nan -24 -10 -10 -7 -15 -15 nan nan nan nan nan nan nan 0 0 0 0 0 0 0 0 0 0 0 0 0 0 0 0 0 0 0 0 0 0 0 0 0 0 0 0 0 0 0 0 0 0 0 0 0 0 0 0 0 0 0 0 0 0 0 0 0 0 0 0 0 0 0 0 0 0
-13 nan nan nan nan -22 -22 nan nan nan nan nan -9 -9 -3 -14 nan nan nan nan nan nan nan nan nan nan nan nan nan nan nan nan nan nan -1 0 0 0 0 0 0 0 0 0 0 0 0 0 0 0 0 0 0 0 0 0 0 0 0 0 0 0 0 0 0 0 0 0 0 0 0 0 0 0 0 0 0 0 0 0 0 0 0 0 0 0
nan nan -16 -17 -17 -20 nan nan nan nan nan -8 -1 -1 -7 nan nan nan nan nan nan nan nan nan nan nan nan nan nan nan nan nan nan nan -3 -18 -19 -19 0 0 0 0 0 0 0 0 0 0 0 0 0 0 0 0 0 0 0 0 0 0 0 0 0 0 0 0 0 0 0 0 0 0 0 0 0 0 0 0 0 0 0 0 0 0 0 0
nan -23 -10 -20 -20 nan nan nan nan nan -15 -9 nan nan nan nan nan nan nan nan nan nan nan nan nan nan nan nan nan nan nan 0 0 0 0 0 0 0 0 0 0 0 0 0 0 0 0 0 0 0 0 0 0 0 0 0 0 0 0 0 0 0 0 0 0 0 0 0 0 0 0 0 0 0 0 0 0 0 0 0 0 0 0 0 0 0
-20 -10 -10 -20 -20 nan nan -16 -7 -7 nan nan nan nan nan nan nan nan nan nan nan nan nan nan nan nan nan nan nan nan nan -18 -9 -9 0 0 0 0 0 0 0 0 0 0 0 0 0 0 0 0 0 0 0 0 0 0 0 0 0 0 0 0 0 0 0 0 0 0 0 0 0 0 0 0 0 0 0 0 0 0 0 0 0 0 0 0
-7 -8 -11 -17 -17 -19 -9 -15 nan nan nan nan nan nan nan nan nan nan nan nan nan nan nan nan nan nan nan nan nan nan -22 -8 -7 -7 nan nan -38 -38 -38 -45 -45 -16 -1 0 0 0 0 0 0 0 0 0 0 0 0 0 0 0 0 0 0 0 0 0 0 0 0 0 0 0 0 0 0 0 0 0 0 0 0 0 0 0 0 0 0 0
-19 -8 -13 -11 -11 -7 -15 nan nan nan nan nan nan nan nan nan nan nan nan nan nan nan nan nan nan nan nan nan -28 -28 -1 -5 nan nan nan nan nan nan nan nan nan nan nan nan nan nan 0 0 0 0 0 0 0 0 0 0 0 0 0 0 0 0 0 0 0 0 0 0 0 0 0 0 0 0 0 0 0 0 0 0 0 0 0 0 0 0
-7 -6 -5 -7 -7 nan nan nan nan nan nan nan nan nan nan nan nan nan nan nan nan nan nan nan nan nan -27 -17 -5 -5 -35 nan nan nan nan nan nan nan nan nan nan nan nan nan nan nan nan nan nan nan 0 0 0 0 0 0 0 0 0 0 0 0 0 0 0 0 0 0 0 0 0 0 0 0 0 0 0 0 0 0 0 0 0 0 0 0
-3 -7 nan nan nan nan nan nan nan nan nan nan nan nan nan nan nan nan nan nan nan nan nan nan nan -12 -16 -15 -57 -57 nan nan nan nan nan nan nan nan nan nan nan nan nan nan nan nan nan nan nan nan nan nan nan nan 0 0 0 0 0 0 0 0 0 0 0 0 0 0 0 0 0 0 0 0 0 0 0 0 0 0 0 0 0 0 0 0
-6 nan nan nan nan nan nan nan nan nan nan nan nan nan nan nan nan nan nan nan nan -14 -12 -6 -6 -6 -20 nan nan nan nan nan nan nan nan nan nan nan nan nan nan nan nan nan nan nan nan nan nan nan nan nan 0 0 0 0 0 0 0 0 0 0 0 0 0 0 0 0 0 0 0 0 0 0 0 0 0 0 0 0 0 0 0 0 0 0
nan nan nan nan nan nan nan nan nan nan nan nan nan nan nan nan nan nan nan nan nan nan -5 -5 -5 -11 -26 nan nan nan nan nan nan nan nan nan nan nan nan nan nan nan nan nan nan nan nan nan nan nan nan 0 0 0 0 0 0 0 0 0 0 0 0 0 0 0 0 0 0 0 0 0 0 0 0 0 0 0 0 0 0 0 0 0 0 0
nan nan nan nan nan nan nan nan nan nan nan nan nan nan nan nan nan nan nan nan nan nan -6 -10 -10 -14 -16 -22 nan nan nan -25 -23 -23 -16 nan nan nan nan nan nan nan nan nan nan nan nan nan nan nan nan 0 0 0 0 0 0 0 0 0 0 0 0 0 0 0 0 0 0 0 0 0 0 0 0 0 0 0 0 0 0 0 0 0 0 0
nan nan nan nan nan nan nan nan nan nan -16 nan nan nan nan nan nan nan nan nan nan -11 -14 -12 -12 -14 -13 -16 -21 -21 -34 -20 -16 -16 -11 -9 nan nan nan nan nan nan nan nan nan nan nan nan nan -8 0 0 0 0 0 0 0 0 0 0 0 0 0 0 0 0 0 0 0 0 0 0 0 0 0 0 0 0 0 0 0 0 0 0 0 0
nan nan nan nan nan nan nan nan -13 -13 nan -22 -35 -35 nan nan nan nan -16 -8 -8 -9 -14 -12 -12 -13 -14 -16 -17 -17 -25 -20 -10 -10 -10 -8 -8 -8 nan -15 -15 -21 -26 nan nan nan nan -13 -13 0 0 0 0 0 0 0 0 0 0 0 0 0 0 0 0 0 0 0 0 0 0 0 0 0 0 0 0 0 0 0 0 0 0 0 0 0
nan nan nan nan nan nan nan nan nan nan -7 -15 -36 -36 -26 -13 -6 -6 -4 -8 -8 -12 -13 -11 -11 -13 -16 -13 -15 -15 -24 -20 -7 -7 -6 -6 -13 -13 -23 -19 -19 -20 -22 -32 -32 -26 -5 -2 -2 nan -5 0 0 0 0 0 0 0 0 0 0 0 0 0 0 0 0 0 0 0 0 0 0 0 0 0 0 0 0 0 0 0 0 0 0 0
nan nan nan nan nan nan -3 -30 -6 -6 -2 -14 -15 -15 -4 -2 -4 -4 -8 -10 -10 -10 -7 -8 -8 -13 -14 -12 -19 -19 nan -30 -9 -9 -6 -4 -9 -9 -19 -23 -23 -23 -14 -15 -15 -12 -20 -74 -74 nan -18 0 0 0 0 0 0 0 0 0 0 0 0 0 0 0 0 0 0 0 0 0 0 0 0 0 0 0 0 0 0 0 0 0 0 0
nan nan nan nan nan -24 -13 -20 -7 -7 -2 -3 -2 -2 -5 -6 -8 -8 -11 -9 -9 -7 -7 -13 -13 -18 -19 -21 nan nan nan -35 -19 -19 -10 -5 -7 -7 -24 -38 -38 -25 -9 -7 -7 -22 nan nan nan nan -12 0 0 0 0 0 0 0 0 0 0 0 0 0 0 0 0 0 0 0 0 0 0 0 0 0 0 0 0 0 0 0 0 0 0 0
nan nan -28 -15 -15 -17 -8 -5 -11 -11 -20 -24 -28 -28 -36 -23 -13 -13 -11 -10 -10 -13 -15 -20 -20 -21 -19 -17 -25 -25 -36 -35 -26 -26 -12 -1 -4 -4 -19 -21 -21 -2 -3 -30 -30 nan nan nan nan nan nan 0 0 0 0 0 0 0 0 0 0 0 0 0 0 0 0 0 0 0 0 0 0 0 0 0 0 0 0 0 0 0 0 0 0 0
-33 -14 -8 -8 -8 -9 -15 -22 -18 -18 nan nan -24 -24 -27 -10 -1 -1 -8 -14 -14 -17 -16 -14 -14 -13 -15 -1 -16 -16 -33 nan -31 -31 -9 -2 -5 -5 -10 -9 -9 -3 -14 nan nan nan nan nan nan nan nan -4 0 0 0 0 0 0 0 0 0 0 0 0 0 0 0 0 0 0 0 0 0 0 0 0 0 0 0 0 0 0 0 0 0 0
0 -0 -1 0 0 0 0 0 0 0 0 -4 -13 -13 -10 -3 -6 -6 -15 -17 -17 -15 -12 -12 -12 -8 -11 -12 -15 -15 -25 -53 -30 -30 -10 -4 -6 -6 -12 -15 -15 -25 -21 nan nan nan nan nan nan nan nan nan 0 0 0 0 0 0 0 0 0 0 0 0 0 0 0 0 0 0 0 0 0 0 0 0 0 0 0 0 0 0 0 0 0 0
0 0 0 0 0 0 0 0 0 0 0 0 0 0 -5 -9 -12 -12 -14 -16 -16 -14 -7 -8 -8 -9 -9 -10 -12 -12 -14 -22 -37 -37 -20 -5 -2 -2 -10 -18 -18 -24 -15 nan nan -26 -12 -13 -13 nan nan nan -16 -16 0 0 0 0 0 0 0 0 0 0 0 0 0 0 0 0 0 0 0 0 0 0 0 0 0 0 0 0 0 0 0 0
0 0 0 0 0 0 0 0 0 0 0 0 0 0 0 -6 -9 -9 -9 -10 -10 -8 -6 -6 -6 -6 -7 -9 -10 -10 -19 -20 -37 -37 -34 -13 -6 -6 -13 -24 -24 nan nan nan nan -12 0 -4 -4 nan nan nan nan nan -1 0 0 0 0 0 0 0 0 0 0 0 0 0 0 0 0 0 0 0 0 0 0 0 0 0 0 0 0 0 0 -4
0 0 0 0 0 0 0 0 0 0 0 0 0 0 0 -6 -8 -8 -9 -11 -11 -7 -5 -3 -3 -4 -6 -8 -12 -12 -18 -16 -23 -23 -31 -18 -11 -11 -19 nan nan nan nan nan nan -10 -6 -15 -15 nan nan -37 -39 -39 -19 0 0 0 0 0 0 0 0 0 0 0 0 0 0 0 0 0 0 0 0 0 0 0 0 0 0 0 0 0 0 -3
nan 0 0 0 0 0 0 0 0 0 0 0 0 0 0 -5 -11 -11 -11 -13 -13 -6 -3 -2 -2 -2 -6 -7 -10 -10 -13 nan nan nan nan nan nan nan nan nan nan nan nan nan nan -8 nan nan nan nan nan -19 -40 -40 nan -38 -38 -34 -7 0 0 0 0 0 0 0 0 0 0 0 0 0 0 0 0 0 0 0 0 0 0 0 -1 -3 -3 -3
nan nan nan nan nan nan nan nan -1 -1 0 0 0 0 0 -7 -17 -17 -14 -9 -9 -5 -3 -3 -3 -3 -3 -6 -6 -6 nan nan nan nan nan nan nan nan nan nan nan nan nan nan nan -8 nan nan nan nan nan -29 nan nan nan nan nan nan nan nan nan -7 0 0 0 0 0 0 0 0 0 0 0 0 0 0 0 0 0 0 0 0 -2 -2 -2 -1
nan nan nan nan nan nan nan nan nan nan nan -15 -10 -10 -1 -1 -5 -5 -12 -10 -10 -6 -7 -4 -4 -4 -3 -4 nan nan nan nan nan nan -8 nan nan nan nan nan nan nan nan nan nan nan nan nan nan nan nan nan nan nan nan nan nan nan nan nan nan -16 0 0 0 0 0 0 0 0 0 0 0 0 0 0 0 0 0 0 0 0 -0 -0 -0 -0
nan nan nan nan nan nan nan nan nan nan -15 -18 -20 -20 nan nan -0 -0 -5 nan nan nan nan nan nan nan nan nan nan nan nan nan -0 -0 0 nan nan nan nan nan nan nan nan nan nan nan nan nan nan nan nan nan nan nan nan nan nan nan nan -21 -21 nan nan -5 -5 nan -0 0 0 0 0 0 0 0 0 0 0 0 0 0 0 0 0 -0 -0 -0
nan nan nan nan nan nan nan nan nan nan -18 nan -11 -11 nan nan nan nan -6 nan nan nan nan nan nan nan nan nan nan nan nan nan 0 0 0 nan nan nan nan nan nan nan nan nan nan nan nan nan nan nan nan nan nan nan nan nan nan -32 nan nan nan nan nan nan nan nan nan nan nan nan -1 0 0 0 0 0 0 0 0 0 0 0 0 0 0 -0
nan nan nan nan nan nan nan nan nan nan -15 nan nan nan nan nan nan nan nan nan nan nan nan nan nan nan nan nan nan nan nan nan -2 -2 0 -2 nan nan nan nan nan nan nan nan nan nan nan nan nan -2 -4 -11 nan nan nan nan nan nan nan nan nan nan nan nan nan nan nan nan nan nan nan nan -2 -2 0 0 0 0 0 0 0 0 0 0 0 0
nan nan nan nan nan nan nan nan nan nan nan nan nan nan nan nan nan nan nan nan nan nan -3 nan nan nan nan nan nan nan nan nan -3 -3 0 nan nan nan nan nan nan nan nan nan nan nan nan nan nan -1 -1 -5 -10 -10 nan nan nan nan nan nan nan nan nan nan nan nan nan nan nan nan nan nan -1 -1 0 0 0 0 0 0 0 0 0 0 0 0
nan nan nan nan nan nan nan nan nan nan nan nan nan nan nan nan nan nan nan nan nan nan nan -2 -2 -4 -1 nan nan nan nan nan nan nan -3 nan nan nan nan nan nan nan nan nan nan nan -11 -4 -4 -3 -4 -4 -8 -8 nan nan nan nan nan nan nan nan nan nan nan nan nan nan nan nan -2 -1 -0 -0 0 0 0 0 0 0 0 0 0 0 0 0
nan nan nan nan nan nan nan nan nan nan nan nan nan nan nan nan nan nan nan nan nan nan nan nan nan nan -3 -0 -7 -7 nan nan nan nan nan nan nan nan nan nan nan nan nan nan nan -7 -6 -3 -3 -1 -2 nan 0 0 -3 nan nan nan nan nan nan nan nan nan nan nan nan nan -0 -0 0 -0 -0 -0 -0 0 -0 -0 -0 -0 -0 0 0 0 0 0
nan nan nan nan nan nan nan nan nan nan nan nan nan nan nan nan nan nan nan nan nan nan nan nan nan nan nan nan -3 -3 -3 nan nan nan nan nan nan nan nan nan nan nan nan -15 -15 -6 -4 -2 -2 -1 nan nan nan nan nan nan nan nan nan nan nan nan nan nan nan nan nan nan -0 -0 -0 -2 -1 -1 -1 nan nan nan nan -1 -1 -0 -0 -0 -0 0
-7 nan nan -4 -4 nan nan nan nan nan nan nan nan nan nan nan nan nan nan nan nan nan nan nan nan nan nan nan nan nan nan nan nan nan nan nan nan nan nan nan nan nan -16 -11 -11 nan nan nan nan nan nan nan nan nan nan nan nan nan -0 nan nan nan nan nan nan nan nan nan -0 -0 -1 nan -1 -1 -1 nan nan nan nan nan nan -0 -0 -0 -0 nan
-3 nan nan nan nan nan nan nan nan nan nan nan nan nan nan nan nan nan nan nan nan nan nan nan nan nan nan nan nan nan nan nan nan nan nan nan nan nan nan nan nan nan -16 nan nan nan nan nan nan nan nan nan -1 -1 -1 nan nan 0 0 nan nan nan nan nan nan nan nan nan -1 -1 -0 -0 -0 -0 nan -1 nan nan nan nan nan -0 -0 nan nan nan
-0 -2 nan nan nan nan nan nan nan nan nan nan nan nan nan nan nan nan nan nan nan nan nan nan nan nan nan nan nan nan nan nan nan nan nan nan nan nan nan -18 -18 -14 -17 nan nan nan nan nan nan nan nan -3 -2 -2 nan nan nan -1 0 nan nan nan nan nan nan nan nan nan nan nan 0 -0 nan nan -1 nan nan nan nan nan nan 0 -0 nan nan nan
-4 nan nan nan nan nan nan nan nan nan nan nan nan nan nan nan nan nan nan nan nan nan nan nan nan nan nan nan nan nan nan nan nan nan nan nan nan nan -12 -13 -13 nan nan nan nan nan nan -1 -1 nan nan nan nan nan nan nan nan nan nan -2 -2 nan nan nan nan nan nan nan nan nan nan nan nan nan nan nan nan nan nan -0 -0 0 0 nan nan nan
nan nan nan nan nan nan nan nan nan nan nan nan nan nan nan nan nan nan nan nan nan nan nan nan nan nan nan nan nan nan nan nan nan nan nan -16 -8 -8 -6 -20 -20 nan nan nan nan nan nan nan nan nan nan nan nan nan nan nan nan nan nan nan nan nan nan nan nan nan nan nan nan nan nan nan nan nan nan nan nan nan nan nan nan nan nan nan nan nan
nan nan nan nan nan nan nan nan nan nan nan nan nan nan nan nan nan nan nan nan nan nan nan nan nan nan nan nan nan nan nan nan nan nan nan -9 -0 -0 -13 nan nan nan nan nan nan nan nan nan nan nan nan nan nan nan nan nan nan nan nan nan nan nan nan nan nan nan nan nan nan nan nan nan nan nan nan nan nan nan nan nan nan nan nan nan nan nan
nan nan nan nan nan nan nan nan nan nan nan nan nan nan nan nan nan nan nan nan nan nan nan nan nan nan nan nan nan nan nan nan nan nan nan nan nan nan nan nan nan nan nan nan nan nan nan nan nan nan nan nan nan nan nan nan nan nan nan nan nan nan nan nan nan nan nan nan nan nan nan nan nan nan nan nan nan nan nan nan nan nan nan nan nan nan
nan nan nan nan nan nan nan nan nan nan nan nan nan nan nan nan nan nan nan nan nan nan nan nan nan nan nan nan nan nan -13 -17 nan nan nan nan nan nan nan nan nan nan nan nan nan nan nan nan nan nan nan nan nan nan nan nan nan nan nan nan nan nan nan nan nan nan nan nan nan nan nan nan nan nan nan nan nan nan nan nan nan nan nan nan nan nan
nan nan nan nan nan nan nan nan nan nan nan nan nan nan nan nan nan nan nan nan nan nan nan nan nan nan nan nan -11 -11 -11 -11 -10 -10 nan nan nan nan nan nan nan nan nan nan nan nan nan nan nan nan nan nan nan nan nan nan nan nan nan nan nan nan nan nan nan nan nan nan nan nan nan nan nan nan nan nan nan nan nan nan nan nan nan nan nan nan
nan nan nan nan nan nan nan nan nan nan nan nan nan nan nan nan 0 0 nan nan nan nan nan nan nan nan nan nan -6 -6 -3 -5 -8 -8 nan nan -9 -9 nan nan nan nan nan nan nan nan nan nan nan nan nan nan nan nan nan nan nan nan nan nan nan nan nan nan nan nan nan nan nan nan nan nan nan nan nan nan nan nan nan nan nan nan nan nan nan nan
nan nan nan nan nan nan nan nan nan nan nan nan nan nan nan nan nan nan nan nan nan nan nan nan nan nan nan nan -8 -8 -5 -9 nan nan nan nan nan nan nan nan nan nan nan nan nan nan nan nan nan nan -3 -6 nan nan nan nan nan nan nan nan nan nan nan nan nan nan nan nan nan nan nan nan nan nan nan nan nan nan nan nan nan nan nan nan nan nan
nan nan nan nan nan nan nan nan nan nan nan nan nan nan nan nan nan nan nan nan nan nan nan nan nan nan nan -7 -4 -4 -2 -8 nan nan nan -9 nan nan nan nan nan nan nan nan nan nan nan nan nan nan nan 0 -1 -1 nan nan nan nan nan nan nan nan nan nan nan nan nan nan nan nan nan nan nan nan nan nan nan nan nan nan nan nan nan nan nan nan
Wind_Speed
11 11 11 12 11 10 11 13 15 15 14 12 11 11 12 13 13 13 16 15 15 14 13 13 14 15 17 21 24 26 28 29 29 30 30 31 31 32 33 33 33 33 33 32 32 32 31 31 31 30 30 29 30 31 32 32 33 33 33 33 33 32 32 31 30 29 28 28 28 29 29 29 30 29 29 28 28 29 29 30 30 31 30 29 28 28
11 11 10 11 12 11 12 14 14 14 14 13 13 12 13 14 13 12 13 14 14 13 12 13 13 14 16 17 21 24 26 27 28 29 30 31 32 33 33 33 33 33 32 32 31 31 31 31 31 30 29 29 30 31 32 33 33 32 32 32 32 32 31 30 29 28 27 27 27 28 29 29 29 29 28 27 27 28 28 30 31 31 31 30 29 28
11 11 9 10 11 12 12 14 13 13 13 13 13 13 14 15 13 12 11 11 11 11 11 12 12 13 15 16 19 23 25 27 28 29 30 32 32 33 33 33 32 32 32 31 31 31 31 31 30 30 29 30 31 32 33 33 33 32 32 31 31 31 31 30 29 28 27 27 27 27 28 28 28 28 27 26 26 27 28 29 30 31 32 31 30 29
11 11 10 9 10 12 12 13 13 12 11 12 13 14 15 13 12 11 10 10 10 10 11 12 12 13 13 13 16 21 25 27 29 30 31 32 32 32 32 32 32 31 31 31 31 31 31 30 30 29 29 30 32 33 33 33 33 32 31 31 30 30 30 30 29 28 27 27 26 27 27 28 27 27 26 25 26 26 27 28 30 31 31 31 31 30
9 9 9 9 10 11 12 12 12 11 10 11 12 13 12 11 10 9 8 9 10 10 11 11 12 12 12 12 15 20 25 28 29 30 31 31 31 31 31 31 31 31 30 30 30 30 30 30 29 29 30 31 32 33 33 33 33 32 31 30 29 29 29 28 27 27 27 26 26 27 27 28 27 27 26 26 26 26 27 28 29 30 30 30 30 31
8 8 8 8 8 9 10 10 10 10 10 10 10 11 10 9 8 7 8 9 10 10 10 11 11 12 13 14 17 21 25 27 29 30 30 30 30 30 30 30 30 30 29 29 29 29 29 29 29 30 31 32 32 33 33 33 33 32 30 29 28 27 26 26 26 26 26 26 26 27 27 27 27 27 26 26 26 27 27 28 29 29 29 29 29 30
7 7 7 8 8 8 8 8 8 9 9 9 8 8 7 7 7 8 9 10 10 10 10 11 11 12 13 15 17 20 22 24 26 27 28 28 28 28 28 28 28 28 28 28 28 28 29 29 30 30 31 32 33 33 33 33 33 31 30 28 27 26 25 25 25 25 25 26 26 26 26 26 26 26 26 26 26 26 27 28 28 28 27 27 28 29
10 9 9 10 9 9 7 7 8 9 9 7 7 6 6 6 7 9 10 10 10 9 10 11 11 11 12 13 15 16 17 18 18 19 21 22 23 23 24 24 25 25 26 27 27 28 29 29 30 31 32 33 33 33 33 33 32 30 29 28 27 26 25 25 25 25 25 25 25 25 24 24 25 25 25 25 25 25 26 26 27 26 26 26 26 27
12 12 11 11 10 10 9 8 8 8 7 6 6 7 8 9 9 9 9 9 9 9 10 11 11 12 12 12 13 14 15 15 15 14 15 15 15 17 19 20 22 23 25 26 27 28 29 30 31 32 32 33 33 33 33 32 31 29 28 28 27 26 26 25 25 25 26 25 24 24 23 23 24 24 24 24 24 24 24 25 25 25 25 25 25 26
11 11 11 10 9 8 9 9 7 6 5 5 6 7 8 9 10 10 10 10 9 9 9 10 11 12 12 12 12 13 14 15 16 17 17 16 17 18 19 19 19 21 24 25 27 28 29 30 31 32 33 33 33 33 32 31 30 28 28 27 27 26 26 26 26 26 26 25 24 23 23 24 24 24 24 24 24 23 23 24 24 25 25 25 25 25
10 10 10 9 7 6 6 6 5 4 5 6 7 8 8 8 9 10 13 13 12 10 10 10 10 11 12 12 12 12 12 12 12 13 15 17 19 20 20 20 20 21 23 25 26 27 29 30 31 32 33 33 32 31 30 29 28 28 27 27 26 26 26 26 26 26 26 25 24 24 24 24 25 25 24 24 24 24 24 24 25 25 26 26 25 25
8 8 7 7 6 5 4 4 5 5 7 8 9 9 9 8 8 9 12 13 13 12 11 10 10 11 12 12 12 11 9 8 8 8 9 11 12 13 13 14 15 17 19 20 22 24 26 28 30 31 31 31 30 29 28 27 27 27 27 27 26 26 26 26 26 26 26 26 25 24 24 25 25 25 25 25 25 25 25 25 25 26 26 27 27 27
7 6 5 5 5 5 5 6 6 7 8 9 10 10 10 9 8 8 9 11 12 12 11 11 11 11 12 11 9 6 5 6 6 7 7 7 7 7 7 8 9 10 12 13 14 16 21 25 27 28 28 28 28 28 27 26 26 26 27 27 26 26 25 25 25 26 27 27 26 26 25 25 26 26 26 26 26 27 26 26 26 26 26 26 27 28
7 6 5 6 7 7 8 9 10 10 10 10 10 10 10 10 9 9 10 11 11 11 11 11 12 11 9 7 5 4 5 6 6 7 7 6 6 6 6 8 9 9 10 11 11 13 17 19 19 20 23 24 25 25 24 25 25 26 26 26 26 25 25 25 25 26 27 27 27 27 26 26 26 27 27 27 27 27 27 27 27 26 26 26 27 28
7 7 8 9 9 10 10 10 11 11 11 10 10 10 10 10 10 10 10 11 11 11 10 11 12 10 6 4 4 4 6 6 7 8 9 8 7 7 8 9 10 10 10 11 11 13 16 15 14 14 16 18 20 21 22 24 25 26 26 25 25 24 25 25 26 26 27 27 27 27 27 27 27 27 27 27 27 27 27 26 26 25 25 25 25 27
7 8 10 11 11 11 10 10 11 11 11 10 10 10 11 11 10 10 10 11 11 10 10 11 11 9 6 4 4 5 7 7 7 8 11 11 9 8 8 9 10 11 11 11 11 12 12 12 12 13 14 17 21 23 25 25 25 25 24 24 24 24 25 26 26 26 26 27 27 27 27 27 27 27 27 27 26 26 26 25 24 24 24 24 24 26
8 9 10 11 12 12 11 10 11 11 11 10 10 10 10 10 10 10 10 10 9 9 8 9 9 8 6 5 4 5 6 7 8 9 11 12 11 9 8 8 10 11 11 11 11 11 11 11 11 12 13 17 20 23 24 24 24 24 24 24 24 25 26 27 26 26 26 26 27 27 28 28 28 27 27 26 26 25 24 23 23 23 23 24 24 26
9 10 11 12 12 12 11 11 10 10 10 10 10 10 10 10 10 10 10 10 9 9 8 8 7 6 7 6 5 5 6 8 9 10 12 12 11 10 8 8 9 11 11 11 11 11 11 11 12 12 14 18 21 22 23 23 23 24 24 25 26 26 27 27 26 26 26 26 27 28 28 28 27 27 26 26 25 25 24 23 23 23 23 24 25 26
11 11 11 12 12 11 11 10 10 10 10 10 10 11 11 11 11 10 10 9 9 8 8 8 8 7 8 8 7 7 7 9 10 11 12 13 11 9 8 8 10 11 11 11 11 11 11 11 12 15 17 19 20 21 22 23 24 25 25 26 27 27 27 26 26 25 26 27 27 28 28 28 27 26 25 25 24 24 25 24 24 24 23 24 25 26
12 11 11 11 11 11 11 11 10 10 11 11 11 11 11 11 10 10 9 8 7 8 8 9 9 9 9 9 9 9 9 9 10 11 12 12 11 10 8 9 10 11 10 9 9 9 8 8 8 11 14 17 19 21 23 24 25 26 27 28 28 28 27 26 25 25 26 27 27 28 28 28 27 26 25 24 25 25 25 25 25 24 24 24 24 25
12 12 10 9 10 10 10 10 11 11 12 12 11 11 10 9 9 8 8 8 9 9 10 9 9 9 8 9 10 10 9 10 10 11 10 10 10 8 7 8 9 10 10 9 8 6 5 6 6 7 11 16 20 23 25 26 27 28 28 29 28 28 26 25 25 25 26 27 28 28 28 27 26 26 25 25 25 25 25 25 25 25 24 24 24 24
11 12 11 11 11 11 11 11 12 12 12 12 10 9 8 8 9 10 10 10 11 11 10 10 10 9 9 10 10 10 9 8 9 10 8 10 10 9 7 7 8 9 10 9 6 5 5 6 7 9 13 18 22 25 26 27 28 29 29 29 28 27 25 24 25 26 27 27 28 28 27 27 26 26 26 26 26 26 26 25 25 25 24 24 24 24
11 11 12 11 11 10 10 10 10 10 10 10 10 10 8 9 10 11 11 11 10 10 10 10 10 10 9 10 10 10 9 8 8 9 8 10 11 10 7 7 7 8 9 7 6 6 8 8 9 10 14 20 23 25 27 28 29 29 29 29 27 26 24 24 25 26 27 27 27 27 27 27 27 26 26 26 26 26 26 25 25 25 24 24 24 23
11 11 11 9 9 9 9 9 10 10 10 10 11 11 10 11 11 11 10 10 10 10 10 10 10 10 10 10 10 9 8 8 8 8 7 9 10 9 7 7 8 9 9 7 8 9 10 10 10 10 11 17 21 24 26 28 29 29 29 27 26 24 23 24 25 26 27 27 27 27 27 27 27 27 26 26 26 26 25 25 25 25 24 24 24 23
11 10 9 10 11 13 14 15 15 15 14 13 12 11 11 12 12 11 10 10 10 10 10 11 11 10 9 10 9 9 7 7 7 7 7 7 8 9 8 7 8 9 10 9 9 10 10 10 10 10 10 13 18 23 25 27 28 28 27 25 24 23 23 24 26 27 27 28 27 27 27 27 27 27 26 26 26 26 25 25 25 25 25 25 24 24
14 14 15 18 21 24 26 26 25 25 23 19 15 12 12 12 11 11 10 9 9 9 10 11 11 10 9 8 8 7 6 6 5 5 6 7 8 9 7 7 8 9 10 9 9 9 10 10 10 10 9 11 15 19 23 25 26 26 24 23 23 23 23 25 26 27 28 28 28 27 27 27 27 27 26 26 26 26 25 25 25 25 25 25 24 23
20 22 25 27 28 28 29 28 29 29 29 26 23 19 15 12 11 11 10 9 9 9 10 11 11 11 10 9 8 7 6 5 5 5 6 7 8 8 7 6 7 8 10 10 9 10 11 11 11 10 9 9 11 14 20 22 23 23 22 22 22 23 24 25 27 27 28 28 27 27 27 27 27 27 27 26 26 26 26 25 25 25 25 23 21 19
22 24 25 26 27 27 27 27 27 27 28 28 28 26 20 14 11 11 10 9 9 9 10 10 11 10 9 9 8 7 7 6 6 6 6 6 7 7 7 7 8 9 10 9 9 10 11 11 10 9 9 9 9 11 14 17 19 19 20 21 22 23 24 26 26 27 27 27 27 26 26 27 27 27 27 27 26 26 26 25 25 24 23 19 15 12
20 22 23 24 25 25 25 25 24 25 26 27 27 25 19 12 10 10 10 9 9 10 11 11 10 10 9 9 9 8 8 7 7 7 6 6 6 7 7 8 8 9 9 8 8 8 8 8 8 7 7 9 9 9 9 12 13 15 16 19 21 22 24 24 25 25 25 25 25 26 26 27 27 27 27 27 26 26 26 26 25 22 17 14 11 10
15 17 18 19 20 20 19 18 18 20 23 24 24 22 16 11 9 9 9 9 9 10 11 11 10 10 9 10 9 8 7 7 6 6 6 6 6 7 7 8 8 8 7 7 7 6 6 6 6 6 7 9 9 8 7 8 8 9 11 14 16 18 20 21 22 23 23 24 25 26 26 27 27 27 27 27 27 26 26 27 24 19 12 10 10 10
13 13 13 13 13 13 13 13 14 15 17 19 18 16 13 10 9 8 8 8 9 9 10 10 10 10 10 9 8 7 6 6 7 8 7 6 6 7 8 8 8 8 7 6 6 6 6 5 5 6 7 9 9 8 7 7 7 7 8 9 10 12 15 17 19 20 21 22 24 25 26 26 27 27 27 27 26 26 26 27 24 18 11 10 10 10
12 12 11 11 11 11 11 11 11 11 11 12 11 10 10 9 9 8 8 8 8 9 9 10 10 10 10 9 8 8 6 7 9 10 9 7 6 6 7 8 8 8 7 7 7 7 7 6 5 6 7 8 8 7 7 7 7 7 7 7 7 8 12 14 15 17 18 20 22 23 24 25 25 26 26 26 26 26 26 27 24 19 12 10 10 10
12 11 10 11 10 10 10 10 10 9 9 8 8 8 8 9 9 9 8 8 8 8 9 10 10 10 10 10 9 9 8 9 10 12 12 8 6 6 6 8 9 9 8 8 8 7 7 7 7 7 8 8 7 6 7 7 7 7 6 6 6 6 9 11 12 13 14 16 17 19 21 22 23 24 25 25 25 25 26 26 24 20 15 11 9 9
12 12 11 11 11 10 10 10 10 9 8 8 8 8 8 8 9 9 9 8 8 8 9 9 10 10 10 9 9 9 9 10 12 13 13 9 7 6 7 8 9 9 8 7 7 7 7 9 9 8 7 7 6 5 6 6 6 5 4 4 5 6 8 9 9 10 11 12 12 13 15 16 18 19 21 22 23 23 23 23 23 21 18 13 10 8
11 11 11 11 10 10 10 10 9 9 8 8 8 8 8 8 8 8 9 9 9 8 8 9 9 10 10 9 9 9 9 10 12 13 13 10 8 7 7 8 8 8 8 8 7 7 7 9 10 10 8 7 6 5 5 4 4 3 3 5 6 7 8 8 8 9 10 10 10 10 10 11 12 13 15 17 19 20 21 21 21 21 20 17 13 10
11 11 11 10 10 10 10 10 9 9 9 8 8 8 8 9 9 9 9 9 9 10 10 10 10 10 10 10 10 10 11 11 13 14 14 12 9 8 7 8 8 9 9 9 8 8 8 9 10 10 10 8 7 5 4 3 3 4 5 6 7 7 7 8 8 8 8 9 10 10 10 10 10 11 12 15 18 19 20 20 20 19 19 18 17 15
10 10 10 10 10 10 10 9 9 9 9 9 8 9 9 9 9 9 9 9 10 10 11 11 11 11 12 11 11 11 12 12 13 14 15 13 11 9 8 8 9 10 9 9 9 8 8 8 9 9 9 8 7 6 5 5 5 6 7 7 7 7 8 8 7 7 8 9 10 10 10 10 10 10 11 15 16 17 17 18 17 17 17 17 17 17
10 10 10 10 9 9 9 9 9 9 9 9 9 9 10 10 10 10 10 10 10 11 11 10 11 12 15 15 15 14 14 15 15 16 17 15 12 10 9 9 9 9 9 9 8 8 8 8 9 9 9 8 8 8 8 8 8 8 8 8 7 7 7 7 7 7 7 9 10 11 11 11 10 9 9 10 10 9 10 10 11 12 14 14 15 17
10 10 10 10 10 9 9 9 9 9 9 9 10 10 10 11 11 11 10 10 10 10 11 11 11 11 13 15 16 16 16 16 16 16 16 14 13 11 10 10 9 9 8 7 6 7 7 8 9 9 9 9 9 9 8 8 8 8 9 8 8 7 7 7 7 7 8 9 10 11 11 10 9 8 8 7 7 6 6 7 7 8 9 8 9 12
10 10 10 10 10 10 10 10 10 10 10 10 11 11 10 10 10 9 9 9 9 10 11 11 11 11 11 12 13 14 14 13 13 13 13 13 12 11 10 10 9 8 6 5 5 6 8 8 9 9 9 9 8 8 7 7 8 8 9 8 7 7 8 8 8 7 7 8 8 9 9 8 8 8 7 7 6 6 6 5 6 6 7 5 5 5
10 10 10 10 10 10 10 10 10 10 10 10 10 9 9 9 9 9 9 9 9 9 9 10 10 10 10 10 11 11 12 12 12 12 11 12 12 12 10 9 7 6 5 5 6 7 8 8 9 9 8 8 8 9 8 8 9 10 11 9 8 9 10 10 9 8 7 7 7 8 9 9 9 8 7 7 6 6 6 6 6 7 6 4 3 3
11 11 10 10 10 10 10 10 10 11 10 9 9 9 9 8 8 9 9 9 9 9 9 9 9 10 10 10 10 10 10 10 10 11 11 11 12 11 10 8 6 5 5 6 7 8 8 8 8 8 8 7 8 8 8 8 9 9 9 9 10 10 11 10 8 6 6 7 8 8 9 8 7 7 7 7 7 6 6 6 7 7 6 4 3 3
10 10 10 10 10 10 11 11 11 10 9 9 9 9 9 8 8 9 9 9 10 10 10 9 9 10 10 10 10 9 8 8 8 9 9 9 9 9 8 7 6 5 6 7 7 8 8 8 8 7 7 7 7 8 8 9 9 9 8 9 9 8 6 7 7 7 7 8 8 8 7 7 6 6 6 6 6 6 6 6 7 7 6 5 4 3
10 10 10 10 10 10 10 10 9 9 9 9 9 9 9 9 9 10 9 9 10 10 10 9 9 9 9 10 10 10 8 7 6 6 6 8 8 8 7 6 6 6 6 6 7 7 7 7 7 7 6 6 7 7 8 8 8 8 8 8 8 8 6 7 8 9 9 9 8 7 7 6 6 6 5 5 5 5 4 4 4 4 5 4 4 3
10 10 10 10 10 10 10 10 10 9 9 9 9 9 9 9 9 9 9 9 10 10 10 9 9 8 8 9 9 9 8 6 5 5 5 7 9 9 7 6 6 6 7 6 6 7 7 7 7 6 6 6 6 7 7 8 8 9 9 9 8 8 8 8 8 8 8 8 8 7 7 7 6 5 5 4 4 4 4 4 4 4 4 4 4 3
9 10 10 10 10 10 11 11 10 10 9 10 10 10 9 9 9 9 9 10 10 10 10 9 8 8 9 9 9 8 7 7 6 5 5 5 6 6 5 5 6 6 6 7 7 6 6 6 6 6 6 6 6 6 7 7 8 8 9 9 8 8 7 7 7 7 7 7 7 7 8 7 6 5 4 4 4 4 4 4 5 5 5 5 4 4
10 10 11 10 10 10 10 10 10 10 10 10 10 10 9 9 9 9 9 9 9 9 9 9 8 9 9 9 9 8 7 7 7 7 7 7 6 5 4 5 6 7 7 7 7 7 6 6 6 6 5 5 5 5 6 6 7 7 8 8 8 7 7 7 7 7 6 6 6 7 8 6 5 4 4 4 4 4 4 5 5 5 5 5 5 5
11 11 11 11 10 10 10 10 10 10 10 10 10 10 9 9 10 10 9 9 9 9 9 9 9 9 9 9 8 8 8 8 8 8 8 8 7 6 5 5 6 7 7 7 7 7 6 6 6 6 5 4 4 5 6 7 7 7 7 7 7 7 7 7 7 6 6 6 7 7 7 5 4 4 4 4 4 4 5 6 6 6 6 6 6 6
11 11 11 11 11 11 11 10 10 11 11 11 11 10 10 10 11 11 9 9 9 9 9 9 9 9 9 8 8 7 8 8 7 7 7 7 6 6 6 6 7 7 7 7 6 5 4 4 5 5 5 4 4 5 6 7 7 7 6 6 6 6 6 6 6 6 6 7 7 8 7 5 4 3 3 3 4 5 6 6 6 7 7 6 6 6
11 10 11 10 11 11 11 11 11 11 11 11 11 11 10 10 9 9 8 8 8 8 8 9 9 9 8 8 8 8 8 7 7 7 7 6 5 5 6 6 7 7 7 6 6 5 3 3 3 3 4 4 4 5 6 7 7 7 6 5 5 5 5 5 6 6 6 6 7 7 7 5 4 4 3 4 4 5 6 6 7 7 7 7 7 7
11 10 10 10 10 11 11 11 11 11 11 11 11 11 11 10 9 9 8 8 8 8 8 8 8 8 8 8 8 8 8 7 7 7 7 6 5 5 6 6 6 6 6 6 6 5 4 4 3 3 4 6 7 7 5 6 7 7 6 5 5 5 4 5 5 6 7 6 6 6 6 6 6 5 5 4 5 6 6 7 7 7 7 7 7 7
Wind_Direction
291 293 294 294 293 293 292 295 296 297 298 298 297 295 295 296 297 298 299 299 298 296 294 292 290 289 287 287 287 287 286 286 287 287 288 290 291 292 292 292 292 291 291 290 290 291 292 293 294 295 296 298 300 301 301 300 298 296 294 293 292 292 292 293 295 296 295 296 296 296 296 295 294 293 293 292 292 292 291 289 286 283 279 277 276 275
288 289 290 292 292 291 291 295 296 296 297 296 295 293 293 296 297 298 298 296 295 293 292 291 289 287 285 284 284 284 284 285 285 286 287 289 289 290 290 291 290 290 290 290 291 292 292 293 294 295 296 298 299 300 300 299 297 295 293 293 292 292 293 293 294 293 292 293 293 294 294 295 294 294 294 294 293 292 291 289 286 283 279 277 274 273
290 290 291 292 291 291 293 296 296 294 293 292 290 290 292 294 295 295 296 296 295 293 291 290 288 286 284 283 282 282 283 283 284 285 286 287 288 289 290 290 290 291 291 292 292 292 293 293 293 294 296 297 299 299 299 298 297 295 294 293 293 293 293 292 291 290 289 289 290 291 292 292 293 292 292 292 291 290 289 288 286 283 280 277 275 272
289 291 294 293 291 291 293 296 296 294 289 286 286 287 289 291 292 293 296 297 296 293 290 288 287 285 284 282 281 282 283 284 285 286 287 288 289 290 291 291 292 292 292 292 293 293 293 293 293 294 295 296 297 298 298 297 296 295 294 294 294 294 292 291 289 288 288 288 289 290 291 291 291 290 290 290 289 289 288 287 285 283 280 278 275 272
288 290 294 295 294 294 294 293 293 291 286 284 284 286 288 290 293 296 298 296 293 291 289 288 286 285 284 283 283 284 285 286 287 288 289 290 291 292 292 292 292 293 293 293 293 293 293 293 293 294 294 295 296 297 297 296 295 294 294 295 294 293 291 289 287 286 286 288 290 292 294 294 293 293 292 291 291 290 289 287 285 283 280 278 275 272
288 289 293 296 296 296 295 293 290 288 286 284 285 288 292 296 299 299 296 292 290 289 289 289 289 288 288 288 289 289 289 290 291 291 292 292 292 293 293 293 293 293 294 294 294 294 293 292 293 293 293 294 295 296 296 295 294 294 294 294 293 291 289 286 285 285 288 292 294 296 297 297 296 295 294 293 292 291 291 290 288 285 282 278 275 272
289 290 295 295 293 292 291 288 286 285 287 290 294 297 301 303 299 294 289 288 289 291 292 292 293 293 293 293 294 294 293 293 293 293 293 292 292 292 292 293 293 294 294 294 294 293 292 291 291 292 293 294 294 295 295 294 294 294 294 292 290 288 285 285 286 289 293 297 298 299 299 298 297 296 294 293 293 292 292 291 290 287 283 279 275 271
294 293 293 293 292 290 285 281 283 287 294 301 307 309 307 300 294 289 287 288 290 294 297 298 298 297 297 297 296 295 294 293 292 291 290 290 290 291 293 293 294 293 292 291 290 290 289 289 290 291 292 293 294 295 295 294 294 293 292 290 288 286 286 288 291 294 297 298 299 299 299 298 297 296 295 295 295 295 294 293 291 288 284 279 274 270
290 291 290 289 289 290 289 288 293 301 311 314 313 309 304 298 294 291 290 291 294 299 302 303 302 300 297 296 294 292 290 288 286 286 288 289 292 294 294 294 293 291 289 288 288 288 288 289 291 292 292 293 294 294 294 293 292 292 290 289 288 288 290 293 294 296 296 297 298 299 299 298 297 297 297 299 299 299 297 295 293 290 286 281 276 271
282 285 288 288 288 290 295 300 308 318 326 315 304 298 295 294 295 296 297 298 301 304 305 303 301 299 296 293 290 288 286 285 287 289 292 292 293 294 292 291 290 289 288 288 288 289 290 291 292 292 292 293 293 293 292 292 291 291 290 290 290 291 293 294 294 294 294 296 298 299 299 298 297 297 299 300 300 298 298 297 296 295 292 287 282 276
281 284 289 293 295 298 300 305 311 316 314 302 294 289 286 291 297 302 304 304 306 306 304 300 297 295 294 292 289 287 287 289 291 293 293 290 290 290 289 289 289 289 289 290 291 291 292 292 292 292 292 291 291 291 290 290 290 290 290 291 291 291 291 291 292 292 294 296 298 298 298 297 296 296 297 297 296 296 296 297 297 297 296 294 290 285
286 293 297 300 304 306 304 302 300 300 301 298 297 295 294 297 300 303 304 304 305 305 302 298 293 290 289 289 290 291 293 294 292 289 285 284 284 286 288 289 290 291 291 292 292 292 292 291 291 291 290 290 289 289 289 289 289 289 290 290 290 289 289 290 291 292 294 296 298 298 297 296 295 295 295 295 295 295 296 296 296 296 296 296 295 292
296 302 304 304 304 304 303 303 301 300 300 300 300 300 301 303 304 302 299 298 298 299 298 296 292 289 287 287 289 292 293 287 282 280 280 283 286 290 294 294 294 293 293 292 291 290 290 290 289 289 288 288 288 288 288 288 288 288 288 287 287 287 288 289 290 293 295 297 299 298 297 296 296 296 297 297 298 298 297 296 295 295 294 294 294 293
310 312 308 304 302 302 304 305 304 303 302 302 301 300 301 303 302 299 295 292 292 293 293 292 290 289 287 286 285 284 284 286 287 288 289 290 294 299 302 298 295 293 292 290 288 287 288 288 288 287 287 286 287 287 286 286 286 286 285 286 286 286 287 288 290 293 296 299 300 299 299 298 299 299 299 299 298 298 297 296 295 294 293 292 292 291
315 312 306 303 302 304 307 307 305 303 302 301 301 300 300 298 297 294 292 290 291 292 291 289 288 286 282 276 275 282 292 298 300 299 297 295 297 300 303 298 294 291 290 288 287 286 287 286 284 283 283 283 283 283 283 283 283 284 284 284 285 286 287 289 292 295 297 299 299 299 299 299 299 299 298 298 297 297 297 297 297 296 294 291 289 288
311 307 303 304 305 306 308 307 305 302 301 300 299 298 296 295 293 292 291 291 291 291 289 289 288 287 281 277 285 299 309 309 305 301 299 296 297 299 301 296 292 289 287 286 285 284 284 282 280 279 279 280 281 282 283 284 284 284 284 283 284 286 289 292 294 296 297 298 298 299 299 298 298 297 296 295 295 296 297 299 299 299 298 294 290 287
305 304 303 305 306 307 307 305 302 299 298 297 295 292 290 290 290 291 290 289 288 286 284 287 291 294 296 297 304 314 320 314 306 300 297 295 296 297 297 292 288 286 285 283 282 281 281 279 278 278 277 280 282 283 284 285 285 285 285 285 287 289 291 293 295 296 296 297 298 298 298 297 296 295 294 294 294 295 297 299 301 302 302 299 295 290
304 305 306 306 306 306 306 303 300 296 295 293 291 290 288 288 288 288 286 284 282 281 282 287 292 298 305 305 311 321 327 315 306 299 295 293 294 295 294 286 282 280 280 278 277 276 276 275 274 275 277 280 282 283 284 284 285 286 287 288 289 290 292 293 294 295 296 297 297 297 296 295 294 293 293 293 294 295 296 297 299 300 300 300 297 293
305 306 307 306 305 303 301 298 296 294 293 292 293 293 291 289 287 285 282 279 278 281 290 297 299 300 301 301 306 315 322 312 303 297 293 292 292 293 291 282 277 275 274 274 273 273 272 272 275 278 280 282 283 284 285 286 287 288 289 290 290 291 291 292 293 294 295 296 296 295 294 294 293 293 292 293 294 295 296 297 297 298 297 297 296 294
305 305 305 304 302 299 296 292 291 291 292 293 293 292 290 289 287 284 281 281 285 291 299 301 300 299 299 300 304 310 315 308 299 293 290 289 289 289 288 282 277 274 272 270 269 269 270 276 283 287 286 286 287 288 289 289 290 290 290 290 290 290 291 291 292 293 294 294 294 294 293 293 293 293 293 294 294 295 296 296 296 295 294 293 293 293
304 303 301 300 298 295 292 290 291 292 293 294 292 290 289 290 290 291 294 297 299 300 300 298 297 298 301 301 303 305 308 302 295 290 288 286 286 286 285 280 276 273 273 273 272 272 274 281 284 286 287 290 291 292 292 292 291 290 290 289 289 289 290 290 291 291 292 293 293 292 292 292 293 293 294 294 295 295 295 294 294 293 292 291 291 291
300 298 297 295 293 290 289 291 292 294 296 296 295 295 297 300 302 302 303 302 301 299 298 297 297 298 299 297 297 297 298 292 286 285 286 285 284 284 285 283 281 279 279 281 283 286 287 286 284 285 288 291 293 293 293 291 290 289 288 288 288 288 289 289 289 290 291 291 291 291 291 292 292 293 293 293 293 293 292 292 291 290 290 289 288 288
294 294 295 295 293 291 291 294 296 298 300 298 297 298 300 300 300 300 299 299 298 297 297 296 296 294 292 290 290 289 288 282 279 279 281 282 284 287 291 289 285 283 282 287 292 295 292 290 290 290 291 292 292 291 291 289 288 287 287 287 287 287 288 288 288 288 289 289 290 290 291 291 292 292 292 292 292 291 290 290 289 288 288 287 286 285
294 295 296 297 297 297 298 300 301 302 302 299 297 295 295 294 294 294 295 296 297 297 297 297 294 292 288 287 287 286 284 281 278 277 277 279 283 287 292 291 287 285 286 292 296 297 294 292 290 288 288 288 288 287 287 286 286 286 286 286 286 286 286 286 287 287 288 288 289 289 290 290 290 291 290 290 290 289 289 288 287 287 286 285 284 283
300 301 303 305 306 306 305 304 304 303 303 301 300 298 297 296 295 294 294 295 296 297 297 296 294 292 290 290 288 285 283 278 275 273 275 277 281 284 290 292 293 293 293 294 294 293 291 289 286 284 281 282 283 283 283 283 284 284 284 285 284 284 284 284 285 286 287 288 289 289 289 289 289 289 289 289 288 288 288 287 286 286 285 284 283 282
309 310 311 309 308 307 306 305 305 304 304 304 303 302 300 299 297 296 295 296 297 298 297 295 292 291 291 290 288 285 284 278 272 268 272 279 283 286 291 294 294 292 292 292 292 290 288 286 285 282 279 278 279 280 280 281 281 282 282 281 281 280 281 283 285 286 288 288 288 288 288 287 288 288 288 288 288 287 287 286 286 285 284 284 283 282
312 311 310 309 308 308 307 306 305 305 305 305 304 302 301 299 298 297 297 299 301 300 296 294 292 291 291 289 287 287 288 286 280 274 275 280 284 287 292 294 294 292 291 290 289 287 286 285 284 283 280 277 276 276 277 278 278 279 278 278 278 279 281 284 286 287 288 288 287 287 287 287 287 287 287 287 287 287 287 286 285 285 284 284 283 281
313 312 311 309 308 307 306 306 305 305 304 303 302 301 299 298 298 298 299 302 302 298 292 291 291 291 292 291 291 291 291 288 285 282 282 282 283 286 293 295 293 291 291 289 287 285 283 283 282 280 278 275 273 272 274 275 276 276 277 278 279 281 284 286 287 287 288 287 287 286 286 286 287 287 288 288 287 287 286 285 285 284 284 282 280 276
311 310 309 307 306 305 304 304 303 302 300 299 298 298 298 297 297 298 299 301 297 292 288 288 289 291 293 294 293 292 289 286 286 287 290 287 285 286 292 293 291 291 291 290 287 283 279 277 277 276 275 276 275 275 275 276 276 277 278 280 282 284 286 287 288 288 287 287 286 287 287 288 288 289 289 288 287 287 285 285 284 283 281 278 273 269
311 309 307 305 303 302 302 300 298 297 296 296 296 296 295 295 294 294 295 294 291 288 287 289 291 292 293 295 294 292 287 286 290 294 298 292 287 286 290 290 289 289 292 292 290 286 279 277 277 279 281 283 283 283 280 278 277 277 278 280 283 285 286 287 287 287 287 287 288 289 289 290 290 290 289 288 287 286 284 283 282 280 275 269 264 260
309 307 304 302 301 300 299 296 295 293 293 294 294 294 294 292 291 289 290 290 288 286 287 289 291 292 293 294 294 293 290 293 297 300 301 292 286 285 289 288 288 288 289 290 292 293 293 288 285 285 287 287 286 284 280 277 275 275 276 279 282 284 286 287 288 288 289 290 291 292 292 292 291 290 289 287 286 285 283 282 280 277 270 263 257 253
306 304 302 301 300 299 297 295 294 293 293 292 292 291 291 292 291 290 289 288 287 286 286 288 289 289 289 287 287 288 290 293 297 298 297 290 284 283 285 286 286 286 285 283 285 290 295 296 295 292 290 287 284 281 277 276 276 278 281 283 285 286 287 289 290 291 292 293 293 293 293 292 290 289 288 287 285 284 282 280 278 274 265 258 253 250
303 302 301 301 300 298 296 295 294 293 293 292 291 291 292 293 293 292 290 288 286 285 285 287 287 287 285 283 281 281 283 287 292 294 295 290 285 282 283 284 285 286 285 281 279 280 283 289 292 293 289 285 282 280 279 279 281 283 286 288 288 288 290 291 292 293 293 293 293 292 291 290 289 288 287 286 284 282 281 279 276 271 264 258 252 249
302 301 300 299 298 297 296 295 295 294 294 293 294 294 295 295 294 293 291 288 285 284 283 284 285 286 286 284 282 280 281 284 289 293 295 291 286 283 285 285 286 286 287 283 280 279 279 283 287 289 289 286 283 282 283 284 286 287 288 288 289 289 291 293 293 293 292 292 290 289 288 287 286 285 285 283 282 280 279 278 275 272 269 264 257 252
301 300 300 299 299 298 298 297 297 297 296 296 297 298 298 296 295 293 291 288 286 284 281 280 281 283 284 285 285 284 284 287 291 294 295 290 286 284 285 285 286 287 287 285 284 283 282 283 285 287 290 291 290 288 287 287 289 291 289 287 287 288 290 292 292 291 290 289 287 285 284 282 281 281 280 280 280 280 281 280 279 277 274 270 264 258
300 300 300 300 300 300 300 300 301 301 301 300 300 299 299 297 295 293 291 289 288 286 284 281 280 279 279 280 281 283 285 288 291 293 293 289 287 285 285 285 287 288 288 286 285 284 284 284 286 289 293 296 296 296 294 296 297 298 294 291 290 288 287 286 286 285 285 285 284 283 281 280 278 277 276 280 282 284 285 285 284 281 277 272 267 262
300 300 301 302 302 302 302 303 304 304 304 303 302 301 299 297 295 294 292 290 288 286 285 284 281 279 276 275 275 277 280 284 287 288 288 286 285 283 281 283 285 286 285 285 286 287 287 291 294 297 299 298 299 303 307 309 307 302 297 296 294 290 286 283 280 278 278 280 280 281 281 279 278 277 277 282 285 287 288 287 285 282 279 275 270 265
300 301 302 304 304 304 305 305 305 305 305 304 303 302 300 297 295 293 292 289 287 285 284 283 282 280 277 276 275 274 275 278 280 281 282 282 282 280 279 281 282 282 281 283 287 292 298 303 305 305 303 301 301 303 306 308 307 304 301 299 295 289 284 281 278 276 276 278 280 281 281 280 278 278 279 281 283 284 284 282 280 279 278 276 272 267
301 303 304 306 307 307 307 306 305 304 304 303 301 300 299 297 294 292 290 288 286 284 282 282 282 281 280 278 277 276 275 275 276 277 279 279 280 280 280 280 281 281 281 284 292 302 308 307 306 304 304 303 302 302 302 303 303 303 304 302 297 292 286 285 282 280 279 280 281 282 282 281 280 280 279 279 279 278 278 279 279 278 277 276 275 272
303 305 305 307 307 306 305 304 303 303 302 301 299 298 297 296 295 293 290 288 287 286 284 283 282 281 280 280 278 277 277 276 276 277 278 277 277 277 278 279 281 283 287 294 301 304 304 299 296 295 295 296 298 299 301 302 303 305 307 305 303 301 299 297 292 285 280 278 279 281 283 285 284 283 282 282 281 280 278 279 280 281 279 278 281 283
307 307 306 306 306 305 303 302 301 301 300 300 300 299 298 298 298 297 296 294 293 291 290 289 287 285 283 280 278 277 277 276 276 275 275 274 275 277 280 281 283 289 298 301 300 297 294 290 289 288 289 290 293 296 299 301 303 305 305 303 300 300 301 298 294 288 284 283 283 285 288 288 288 289 289 289 287 283 280 279 280 281 281 276 274 280
307 307 306 306 305 305 303 302 301 301 300 300 300 299 299 300 300 300 301 301 300 299 297 297 296 295 292 289 285 281 278 276 274 272 273 275 278 281 284 286 290 298 304 301 297 293 290 287 286 287 290 293 296 298 299 299 300 301 300 298 298 299 299 297 296 294 296 295 293 292 291 291 291 293 295 294 291 288 285 282 283 284 286 282 276 270
307 305 304 304 303 302 302 302 302 303 303 302 301 300 299 300 300 300 300 300 300 300 300 299 298 297 296 294 293 291 285 277 272 271 274 279 283 286 288 290 295 300 303 299 296 293 292 289 287 287 290 293 295 295 296 298 298 298 296 297 300 303 303 304 307 308 306 301 297 294 291 292 293 295 295 293 291 290 288 287 288 291 294 289 284 278
304 303 303 303 303 303 304 305 305 305 305 303 302 300 300 300 300 300 299 298 298 299 300 299 298 295 293 293 294 295 293 288 282 279 283 288 292 294 293 296 298 300 300 297 296 296 297 293 290 287 288 290 290 290 291 294 296 298 299 301 300 298 293 298 303 306 305 301 298 297 296 297 298 298 295 290 287 287 290 292 294 298 301 297 294 291
303 303 304 304 306 306 307 306 305 305 305 303 302 301 301 301 301 300 299 298 297 298 299 299 298 296 294 294 296 297 297 299 300 300 297 297 300 303 303 304 304 304 301 296 293 292 292 292 291 290 289 287 285 285 287 291 295 299 301 303 301 295 288 289 292 295 296 298 299 301 303 305 303 300 297 295 295 298 304 312 317 320 320 320 318 316
306 306 307 307 307 306 306 306 305 305 304 303 302 302 302 302 301 299 298 297 297 297 298 298 297 295 294 296 298 300 301 305 309 313 315 311 310 310 310 310 310 308 303 296 291 286 281 280 282 285 289 287 284 282 283 289 294 298 301 304 303 300 294 292 291 291 293 296 300 305 310 310 308 306 307 310 315 321 330 335 337 338 335 337 338 337
308 308 308 307 306 306 305 306 306 306 305 304 304 303 303 302 301 300 298 298 298 298 298 297 295 292 292 294 297 300 304 309 315 318 321 319 317 317 319 319 316 312 306 300 292 283 273 267 267 271 278 284 286 288 289 292 294 296 299 302 303 303 301 299 298 298 298 300 306 311 315 317 320 321 323 325 332 344 353 354 352 349 346 348 350 350
309 308 307 307 306 306 306 306 307 307 306 305 304 304 304 304 304 303 302 301 300 299 299 299 296 294 293 294 296 301 307 312 317 320 321 320 320 324 330 329 324 318 313 307 298 287 272 260 255 255 261 272 286 297 301 300 299 299 299 301 302 303 303 302 304 305 307 312 316 318 320 324 326 327 326 336 351 5 9 6 2 357 353 354 356 359
307 306 306 306 306 306 306 307 308 307 306 305 305 305 305 305 305 305 302 302 301 299 299 298 297 296 296 298 301 306 312 315 317 319 319 319 322 328 335 334 332 328 324 319 313 301 281 264 252 249 253 272 292 303 304 304 304 303 301 301 302 303 303 305 309 314 319 322 324 326 329 330 328 324 323 348 8 18 18 13 8 2 356 355 358 3
306 305 305 305 305 306 306 307 307 307 306 305 306 306 307 307 307 305 302 301 299 298 297 297 297 298 300 305 310 315 318 320 320 320 319 320 327 335 339 338 337 336 334 333 333 331 321 305 280 270 280 305 315 315 308 308 308 308 309 309 309 308 309 312 316 322 326 328 330 333 337 341 341 341 343 7 22 28 26 20 13 5 358 356 360 6
306 305 305 305 305 306 306 307 306 306 305 305 306 306 307 308 308 306 305 304 302 300 298 297 297 300 306 312 316 319 322 322 322 321 319 323 332 341 341 340 340 340 340 341 342 342 342 340 330 318 315 327 334 336 321 314 314 316 320 323 323 321 320 321 323 326 329 330 334 341 348 355 358 360 3 15 26 31 30 24 16 8 360 358 1 8